FW8483 Weather Reports


Display with metric or nautical units.
time (UTC)temp
F
wind
direction
speed
MPH
gust
MPH
rain 1hr
in
rain 24hr
in
rain mn
in
humidity
%
barometer
mb
20260906194530 92 291 2.0 5.0 0.00 0.00 0.00 60 1010.5
20260906194015 93 320 2.0 5.0 0.00 0.00 0.00 61 1010.7
20260906193514 92 234 3.0 5.0 0.00 0.00 0.00 63 1010.7
20260906193007 92 282 2.0 5.0 0.00 0.00 0.00 63 1010.9
20260906192503 91 205 1.0 7.0 0.00 0.00 0.00 64 1011.0
20260906192007 91 249 1.0 9.0 0.00 0.00 0.00 65 1011.0
20260906191513 91 171 6.0 9.0 0.00 0.00 0.00 63 1011.2
20260906191007 92 157 2.0 5.0 0.00 0.00 0.00 67 1011.3
20260906190510 92 267 2.0 5.0 0.00 0.00 0.00 65 1011.3
20260906190023 91 302 1.0 6.0 0.00 0.02 0.00 65 1011.4
20260906185511 91 216 2.0 6.0 0.00 0.15 0.00 64 1011.5
20260906185013 91 192 3.0 6.0 0.00 0.26 0.00 66 1011.7
20260906184533 91 236 2.0 5.0 0.00 0.27 0.00 65 1011.7
20260906184014 91 187 3.0 5.0 0.00 0.27 0.00 66 1011.7
20260906183517 91 72 1.0 6.0 0.00 0.27 0.00 65 1011.7
20260906183034 91 229 0.0 7.0 0.00 0.27 0.00 68 1011.7
20260906182505 91 264 3.0 7.0 0.00 0.27 0.00 66 1011.9
20260906182015 91 252 3.0 7.0 0.00 0.27 0.00 65 1011.9
20260906181515 91 12 0.0 7.0 0.00 0.27 0.00 67 1012.0
20260906181007 90 207 3.0 7.0 0.00 0.27 0.00 66 1012.0
20260906180506 90 315 0.0 3.0 0.00 0.27 0.00 67 1012.2
20260906180023 90 110 0.0 2.0 0.00 0.27 0.00 67 1012.2
20260906175512 90 234 1.0 2.0 0.00 0.27 0.00 66 1012.2
20260906175011 90 276 0.0 4.0 0.00 0.27 0.00 69 1012.3
20260906174528 90 304 1.0 6.0 0.00 0.27 0.00 69 1012.3
20260906174012 90 180 2.0 8.0 0.00 0.27 0.00 67 1012.4
20260906173515 90 147 5.0 8.0 0.00 0.27 0.00 70 1012.5
20260906173030 90 90 1.0 4.0 0.00 0.27 0.00 67 1012.6
20260906172516 90 65 0.0 3.0 0.00 0.27 0.00 67 1012.7
20260906172017 89 298 1.0 5.0 0.00 0.27 0.00 67 1012.7
20260906171510 89 271 2.0 6.0 0.00 0.27 0.00 68 1012.8
20260906171003 89 198 0.0 7.0 0.00 0.27 0.00 72 1012.8
20260906170507 90 203 4.0 7.0 0.00 0.27 0.00 69 1012.8
20260906170018 89 221 0.0 7.0 0.00 0.27 0.00 68 1012.8
20260906165512 89 165 1.0 7.0 0.00 0.27 0.00 68 1012.9
20260906165015 89 190 3.0 5.0 0.00 0.27 0.00 68 1013.0
20260906164533 89 213 0.0 4.0 0.00 0.27 0.00 70 1012.9
20260906164012 89 195 1.0 5.0 0.00 0.27 0.00 70 1012.9
20260906163514 89 302 2.0 6.0 0.00 0.27 0.00 70 1013.1
20260906163029 89 260 3.0 6.0 0.00 0.27 0.00 72 1013.2
20260906162518 89 178 0.0 8.0 0.00 0.27 0.00 74 1013.2
20260906162016 89 278 1.0 8.0 0.00 0.27 0.00 72 1013.3
20260906161532 89 288 1.0 4.0 0.00 0.27 0.00 76 1013.2
20260906161014 88 214 0.0 5.0 0.00 0.27 0.00 72 1013.2
20260906160503 88 155 1.0 5.0 0.00 0.27 0.00 73 1013.2
20260906160017 88 220 2.0 5.0 0.00 0.27 0.00 75 1013.3
20260906155510 88 164 3.0 5.0 0.00 0.27 0.00 75 1013.2
20260906155007 88 291 2.0 4.0 0.00 0.27 0.00 73 1013.3
20260906154519 88 350 2.0 4.0 0.00 0.27 0.00 73 1013.3
20260906154011 88 298 1.0 4.0 0.00 0.27 0.00 75 1013.4
20260906153511 87 323 0.0 4.0 0.00 0.27 0.00 78 1013.4
20260906153028 87 185 1.0 4.0 0.00 0.27 0.00 74 1013.5
20260906152514 87 321 1.0 4.0 0.00 0.27 0.00 76 1013.4
20260906152015 86 234 1.0 4.0 0.00 0.27 0.00 78 1013.5
20260906151530 87 240 2.0 4.0 0.00 0.27 0.00 77 1013.4
20260906151018 86 207 1.0 4.0 0.00 0.27 0.00 81 1013.4
20260906150518 86 192 2.0 4.0 0.00 0.27 0.00 79 1013.3
20260906150033 86 233 1.0 4.0 0.00 0.27 0.00 82 1013.4
20260906145507 85 317 1.0 4.0 0.00 0.27 0.00 79 1013.4
20260906145007 85 222 0.0 4.0 0.00 0.27 0.00 80 1013.4
20260906144520 85 256 1.0 6.0 0.00 0.27 0.00 82 1013.5
20260906144011 85 236 2.0 6.0 0.00 0.27 0.00 83 1013.4
20260906143512 84 294 2.0 4.0 0.00 0.27 0.00 83 1013.4
20260906143025 84 360 1.0 4.0 0.00 0.27 0.00 84 1013.4
20260906142512 84 271 0.0 4.0 0.00 0.27 0.00 84 1013.5
20260906142016 83 317 1.0 4.0 0.00 0.27 0.00 85 1013.5
20260906141529 83 275 2.0 4.0 0.00 0.27 0.00 86 1013.5
20260906141014 83 290 1.0 6.0 0.00 0.27 0.00 88 1013.5
20260906140516 82 320 0.0 6.0 0.00 0.27 0.00 88 1013.5
20260906140032 82 292 3.0 4.0 0.00 0.27 0.00 88 1013.5
20260906135513 82 287 2.0 6.0 0.00 0.27 0.00 88 1013.5
20260906135007 82 291 3.0 6.0 0.00 0.27 0.00 89 1013.5
20260906134516 81 288 1.0 4.0 0.00 0.27 0.00 90 1013.5
20260906134012 81 313 2.0 4.0 0.00 0.27 0.00 90 1013.4
20260906133508 80 244 1.0 4.0 0.00 0.27 0.00 91 1013.4
20260906133023 80 326 3.0 4.0 0.00 0.27 0.00 91 1013.5
20260906132512 80 317 2.0 3.0 0.00 0.27 0.00 92 1013.6
20260906132012 79 244 2.0 3.0 0.00 0.27 0.00 92 1013.6
20260906131530 79 275 2.0 3.0 0.00 0.27 0.00 93 1013.6
20260906131015 79 262 2.0 3.0 0.00 0.27 0.00 94 1013.6
20260906130516 79 286 0.0 3.0 0.00 0.27 0.00 96 1013.5
20260906130034 78 338 1.0 4.0 0.00 0.27 0.00 96 1013.5
20260906125516 78 268 1.0 4.0 0.00 0.27 0.00 97 1013.5
20260906125015 78 309 0.0 0.0 0.00 0.27 0.00 97 1013.4
20260906124538 78 237 0.0 0.0 0.00 0.27 0.00 98 1013.4
20260906124007 77 237 0.0 0.0 0.00 0.27 0.00 98 1013.3
20260906123510 77 237 0.0 0.0 0.00 0.27 0.00 98 1013.3
20260906123031 76 237 0.0 0.0 0.00 0.27 0.00 98 1013.3
20260906122511 76 237 0.0 0.0 0.00 0.27 0.00 98 1013.2
20260906122012 75 76 0.0 0.0 0.00 0.27 0.00 98 1013.2
20260906121532 75 76 0.0 0.0 0.00 0.27 0.00 98 1013.1
20260906121014 74 76 0.0 0.0 0.00 0.27 0.00 98 1013.1
20260906120515 74 76 0.0 0.0 0.00 0.27 0.00 98 1013.0
20260906120031 74 76 0.0 0.0 0.00 0.27 0.00 98 1013.0
20260906115514 74 76 0.0 0.0 0.00 0.27 0.00 98 1013.0
20260906115002 74 76 0.0 0.0 0.00 0.27 0.00 97 1013.0
20260906114503 74 76 0.0 0.0 0.00 0.27 0.00 97 1013.0
20260906114003 74 76 0.0 0.0 0.00 0.27 0.00 97 1012.9
20260906113503 74 76 0.0 0.0 0.00 0.27 0.00 98 1012.9
20260906113004 73 76 0.0 0.0 0.00 0.27 0.00 98 1012.9
20260906112503 73 76 0.0 0.0 0.00 0.27 0.00 97 1012.8
20260906112003 73 76 0.0 0.0 0.00 0.27 0.00 97 1012.7
20260906111507 73 76 0.0 0.0 0.00 0.27 0.00 97 1012.7
20260906111003 73 76 0.0 0.0 0.00 0.27 0.00 97 1012.8
20260906110503 73 76 0.0 0.0 0.00 0.27 0.00 97 1012.7
20260906110005 73 76 0.0 0.0 0.00 0.27 0.00 97 1012.7
20260906105504 73 76 0.0 0.0 0.00 0.27 0.00 97 1012.7
20260906105005 73 76 0.0 0.0 0.00 0.27 0.00 97 1012.6
20260906104506 73 76 0.0 0.0 0.00 0.27 0.00 97 1012.7
20260906104002 73 76 0.0 0.0 0.00 0.27 0.00 97 1012.7
20260906103502 74 76 0.0 0.0 0.00 0.27 0.00 97 1012.5
20260906103006 74 76 0.0 0.0 0.00 0.27 0.00 97 1012.4
20260906102504 73 76 0.0 0.0 0.00 0.27 0.00 97 1012.4
20260906102003 73 76 0.0 0.0 0.00 0.27 0.00 97 1012.3
20260906101506 74 76 0.0 0.0 0.00 0.27 0.00 97 1012.3
20260906101003 74 76 0.0 0.0 0.00 0.27 0.00 98 1012.4
20260906100503 73 76 0.0 0.0 0.00 0.27 0.00 97 1012.4
20260906100014 73 76 0.0 0.0 0.00 0.27 0.00 97 1012.3
20260906095502 73 76 0.0 0.0 0.00 0.27 0.00 97 1012.2
20260906095003 73 76 0.0 0.0 0.00 0.27 0.00 97 1012.2
20260906094505 73 76 0.0 0.0 0.00 0.27 0.00 97 1012.1
20260906094003 74 76 0.0 0.0 0.00 0.27 0.00 97 1012.1
20260906093505 74 76 0.0 0.0 0.00 0.27 0.00 97 1012.1
20260906093008 74 76 0.0 0.0 0.00 0.27 0.00 97 1012.0
20260906092502 74 76 0.0 0.0 0.00 0.27 0.00 97 1012.0
20260906092004 74 76 0.0 0.0 0.00 0.27 0.00 97 1012.0
20260906091507 74 76 0.0 0.0 0.00 0.27 0.00 97 1012.0
20260906091003 74 76 0.0 0.0 0.00 0.27 0.00 97 1012.0
20260906090504 74 76 0.0 0.0 0.00 0.27 0.00 97 1011.9
20260906090006 74 76 0.0 0.0 0.00 0.27 0.00 97 1011.8
20260906085505 74 76 0.0 0.0 0.00 0.27 0.00 97 1011.8
20260906085003 74 76 0.0 0.0 0.00 0.27 0.00 97 1011.8
20260906084508 75 76 0.0 0.0 0.00 0.27 0.00 97 1011.8
20260906084005 75 76 0.0 0.0 0.00 0.27 0.00 97 1011.7
20260906083503 75 76 0.0 0.0 0.00 0.27 0.00 97 1011.7
20260906083006 75 76 0.0 0.0 0.00 0.27 0.00 97 1011.7
20260906082502 75 76 0.0 0.0 0.00 0.27 0.00 97 1011.6
20260906082002 75 76 0.0 0.0 0.00 0.27 0.00 97 1011.6
20260906081506 75 76 0.0 0.0 0.00 0.27 0.00 97 1011.6
20260906081003 74 76 0.0 0.0 0.00 0.27 0.00 97 1011.6
20260906080504 74 76 0.0 0.0 0.00 0.27 0.00 97 1011.5
20260906080008 74 76 0.0 0.0 0.00 0.27 0.00 97 1011.5
20260906075503 74 76 0.0 0.0 0.00 0.27 0.00 97 1011.6
20260906075004 74 76 0.0 0.0 0.00 0.27 0.00 97 1011.7
20260906074507 74 76 0.0 0.0 0.00 0.27 0.00 97 1011.6
20260906074003 74 76 0.0 0.0 0.00 0.27 0.00 97 1011.7
20260906073503 74 76 0.0 0.0 0.00 0.27 0.00 97 1011.8
20260906073008 74 76 0.0 0.0 0.00 0.27 0.00 97 1011.8
20260906072504 74 77 0.0 0.0 0.00 0.27 0.00 96 1011.8
20260906072003 75 287 0.0 0.0 0.00 0.27 0.00 96 1011.7
20260906071507 75 287 0.0 0.0 0.00 0.27 0.00 97 1011.6
20260906071002 75 287 0.0 0.0 0.00 0.27 0.00 97 1011.5
20260906070502 75 287 0.0 0.0 0.00 0.27 0.00 97 1011.5
20260906070010 75 287 0.0 0.0 0.00 0.27 0.00 97 1011.6
20260906065503 75 287 0.0 0.0 0.00 0.27 0.00 97 1011.8
20260906065003 75 287 0.0 0.0 0.00 0.27 0.00 97 1011.8
20260906064510 75 287 0.0 0.0 0.00 0.27 0.00 97 1011.8
20260906064004 76 287 0.0 0.0 0.00 0.27 0.00 97 1011.9
20260906063506 76 287 0.0 0.0 0.00 0.27 0.00 97 1011.9
20260906063011 75 287 0.0 0.0 0.00 0.27 0.00 97 1012.0
20260906062502 75 287 0.0 0.0 0.00 0.27 0.00 97 1012.0
20260906062003 75 287 0.0 0.0 0.00 0.27 0.00 97 1012.1
20260906061519 75 287 0.0 0.0 0.00 0.27 0.00 97 1012.0
20260906061004 75 287 0.0 0.0 0.00 0.27 0.00 97 1012.0
20260906060504 75 287 0.0 0.0 0.00 0.27 0.00 96 1012.1
20260906060009 75 287 0.0 0.0 0.00 0.27 0.00 97 1012.2
20260906055506 75 287 0.0 0.0 0.00 0.27 0.00 97 1012.2
20260906055004 76 287 0.0 0.0 0.00 0.27 0.00 97 1012.2
20260906054524 76 287 0.0 0.0 0.00 0.27 0.00 97 1012.2
20260906054003 75 287 0.0 0.0 0.00 0.27 0.00 97 1012.2
20260906053502 75 287 0.0 0.0 0.00 0.27 0.00 96 1012.3
20260906053008 75 287 0.0 0.0 0.00 0.27 0.00 96 1012.3
20260906052504 76 287 0.0 0.0 0.00 0.27 0.00 97 1012.4
20260906052010 76 287 0.0 0.0 0.00 0.27 0.00 97 1012.3
20260906051510 76 287 0.0 0.0 0.00 0.27 0.00 96 1012.1
20260906051007 76 287 0.0 0.0 0.00 0.27 0.00 96 1012.2
20260906050507 76 287 0.0 0.0 0.00 0.27 0.00 97 1012.2
20260906050010 76 287 0.0 0.0 0.00 0.27 0.00 97 1012.2
20260906045502 77 287 0.0 0.0 0.00 0.27 0.27 97 1012.2
20260906045003 77 287 0.0 0.0 0.00 0.28 0.27 97 1012.2
20260906044514 77 287 0.0 0.0 0.00 0.28 0.27 97 1012.2
20260906044003 77 287 0.0 0.0 0.00 0.28 0.27 97 1012.3
20260906043502 76 287 0.0 0.0 0.00 0.28 0.27 97 1012.3
20260906043021 76 287 0.0 0.0 0.00 0.28 0.27 97 1012.3
20260906042504 76 287 0.0 0.0 0.00 0.28 0.27 96 1012.5
20260906042004 76 287 0.0 0.0 0.00 0.28 0.27 96 1012.6
20260906041514 76 287 0.0 0.0 0.00 0.28 0.27 96 1012.5
20260906041007 76 287 0.0 0.0 0.00 0.28 0.27 96 1012.6
20260906040507 76 287 0.0 0.0 0.00 0.28 0.27 96 1012.7
20260906040013 76 287 0.0 0.0 0.00 0.28 0.27 96 1012.7
20260906035503 76 287 0.0 0.0 0.00 0.28 0.27 97 1012.8
20260906035003 76 287 0.0 0.0 0.00 0.28 0.27 96 1012.9
20260906034514 76 287 0.0 0.0 0.00 0.28 0.27 96 1013.0
20260906034002 76 287 0.0 0.0 0.00 0.28 0.27 96 1012.9
20260906033502 76 287 0.0 0.0 0.00 0.28 0.27 96 1012.9
20260906033007 76 287 0.0 0.0 0.00 0.28 0.27 96 1013.0
20260906032503 77 287 0.0 0.0 0.00 0.28 0.27 96 1013.1
20260906032004 77 287 0.0 0.0 0.00 0.28 0.27 96 1013.1
20260906031512 77 287 0.0 0.0 0.00 0.28 0.27 96 1013.1
20260906031004 77 287 0.0 0.0 0.00 0.28 0.27 96 1013.1
20260906030503 77 287 0.0 0.0 0.00 0.28 0.27 96 1013.1
20260906030015 77 287 0.0 0.0 0.00 0.28 0.27 96 1013.1
20260906025506 77 287 0.0 0.0 0.00 0.28 0.27 96 1013.1
20260906025008 77 287 0.0 0.0 0.00 0.28 0.27 96 1013.2
20260906024514 77 287 0.0 0.0 0.00 0.28 0.27 96 1013.2
20260906024007 77 287 0.0 0.0 0.00 0.28 0.27 96 1013.1
20260906023506 78 287 0.0 0.0 0.00 0.28 0.27 96 1013.2
20260906023015 77 287 0.0 0.0 0.00 0.28 0.27 96 1013.2
20260906022503 77 287 0.0 0.0 0.00 0.28 0.27 95 1013.0
20260906022003 78 287 0.0 0.0 0.00 0.28 0.27 96 1012.9
20260906021519 78 287 0.0 0.0 0.00 0.28 0.27 96 1012.8
20260906021004 78 287 0.0 0.0 0.00 0.28 0.27 96 1012.7
20260906020505 78 287 0.0 0.0 0.00 0.28 0.27 96 1012.6
20260906020020 78 287 0.0 0.0 0.00 0.28 0.27 95 1012.5
20260906015507 78 287 0.0 0.0 0.00 0.28 0.27 95 1012.3
20260906015007 78 287 0.0 0.0 0.00 0.28 0.27 95 1012.3
20260906014519 78 287 0.0 0.0 0.00 0.28 0.27 95 1012.3
20260906014008 78 287 0.0 0.0 0.00 0.28 0.27 95 1012.2
20260906013508 78 287 0.0 0.0 0.00 0.28 0.27 95 1012.2
20260906013032 78 287 0.0 0.0 0.00 0.28 0.27 95 1012.1
20260906012506 78 287 0.0 0.0 0.00 0.28 0.27 95 1012.0
20260906012003 78 287 0.0 0.0 0.00 0.28 0.27 94 1011.9
20260906011508 78 287 0.0 0.0 0.00 0.28 0.27 94 1011.8
20260906011002 78 287 0.0 0.0 0.00 0.28 0.27 94 1011.7
20260906010505 79 287 0.0 0.0 0.00 0.28 0.27 94 1011.7
20260906010016 79 287 0.0 0.0 0.00 0.28 0.27 94 1011.6
20260906005507 79 287 0.0 0.0 0.00 0.28 0.27 94 1011.5
20260906005009 79 287 0.0 0.0 0.00 0.28 0.27 94 1011.4
20260906004517 79 287 0.0 0.0 0.00 0.28 0.27 94 1011.4
20260906004006 79 287 0.0 1.0 0.00 0.28 0.27 94 1011.5
20260906003508 79 240 0.0 1.0 0.00 0.28 0.27 94 1011.5
20260906003022 79 232 0.0 1.0 0.00 0.28 0.27 94 1011.5
20260906002506 79 232 0.0 0.0 0.00 0.28 0.27 94 1011.7
20260906002011 80 232 0.0 0.0 0.00 0.28 0.27 93 1011.8
20260906001520 80 232 0.0 0.0 0.00 0.28 0.27 93 1011.8
20260906001003 80 232 0.0 2.0 0.00 0.28 0.27 93 1011.9
20260906000503 80 232 0.0 2.0 0.00 0.28 0.27 92 1011.8
20260906000023 80 232 0.0 0.0 0.00 0.28 0.27 92 1011.8
20260905235505 80 156 0.0 0.0 0.00 0.28 0.27 92 1011.9
20260905235007 80 156 0.0 0.0 0.00 0.28 0.27 92 1011.9
20260905234517 80 156 0.0 0.0 0.00 0.28 0.27 92 1011.9
20260905234008 80 156 0.0 0.0 0.00 0.28 0.27 92 1011.9
20260905233510 81 156 0.0 0.0 0.00 0.28 0.27 91 1011.9
20260905233022 81 156 0.0 0.0 0.00 0.28 0.27 91 1011.8
20260905232509 81 156 0.0 0.0 0.00 0.28 0.27 90 1011.9
20260905232008 81 156 0.0 0.0 0.00 0.28 0.27 91 1011.9
20260905231519 81 156 0.0 0.0 0.00 0.28 0.27 91 1012.0
20260905231009 81 156 0.0 0.0 0.00 0.28 0.27 91 1011.9
20260905230511 81 156 0.0 0.0 0.00 0.28 0.27 89 1011.9
20260905230019 81 156 0.0 0.0 0.00 0.28 0.27 90 1012.0
20260905225503 81 320 0.0 0.0 0.00 0.28 0.27 89 1011.9
20260905225003 81 318 0.0 0.0 0.00 0.28 0.27 89 1011.8
20260905224519 81 338 0.0 0.0 0.00 0.28 0.27 89 1011.8
20260905224005 81 352 0.0 0.0 0.00 0.28 0.27 88 1011.9
20260905223512 81 352 0.0 0.0 0.00 0.28 0.27 88 1012.0
20260905223021 81 352 0.0 2.0 0.00 0.28 0.27 88 1011.9
20260905222510 81 320 0.0 2.0 0.00 0.28 0.27 87 1011.9
20260905222011 82 338 1.0 2.0 0.00 0.28 0.27 86 1012.0
20260905221520 82 336 0.0 2.0 0.00 0.29 0.27 86 1012.0
20260905221010 82 336 0.0 4.0 0.00 0.29 0.27 85 1012.1
20260905220511 83 338 1.0 4.0 0.00 0.30 0.27 83 1012.0
20260905220022 83 347 2.0 4.0 0.00 0.31 0.27 81 1012.0
20260905215512 84 342 2.0 4.0 0.00 0.32 0.27 80 1012.1
20260905215006 85 28 1.0 4.0 0.00 0.33 0.27 80 1012.1
20260905214513 85 47 0.0 0.0 0.00 0.34 0.27 83 1012.3
20260905214007 85 236 0.0 0.0 0.00 0.35 0.27 81 1012.4
20260905213509 84 236 0.0 0.0 0.00 0.36 0.27 80 1012.3
20260905213025 84 236 0.0 0.0 0.00 0.37 0.27 81 1012.3
20260905212510 84 144 0.0 3.0 0.00 0.38 0.27 81 1012.3
20260905212009 84 9 0.0 3.0 0.00 0.39 0.27 80 1012.3
20260905211522 84 9 1.0 7.0 0.00 0.39 0.27 79 1012.3
20260905211011 85 344 3.0 7.0 0.00 0.40 0.27 78 1012.3
20260905210512 86 314 1.0 7.0 0.00 0.40 0.27 80 1012.3
20260905210027 86 271 1.0 7.0 0.00 0.41 0.27 78 1012.2
20260905205511 87 259 3.0 5.0 0.00 0.41 0.27 77 1012.1
20260905205011 87 307 0.0 5.0 0.00 0.41 0.27 79 1012.1
20260905204512 86 204 0.0 4.0 0.00 0.42 0.27 81 1012.2
20260905204005 85 252 1.0 4.0 0.00 0.42 0.27 82 1012.3
20260905203508 85 238 0.0 2.0 0.00 0.43 0.27 86 1012.4
20260905203025 84 209 0.0 3.0 0.00 0.44 0.27 83 1012.4
20260905202509 84 204 0.0 3.0 0.00 0.46 0.27 83 1012.4
20260905202010 84 249 0.0 7.0 0.00 0.48 0.27 83 1012.5
20260905201524 84 289 0.0 7.0 0.00 0.51 0.27 83 1012.4
20260905201011 85 233 2.0 6.0 0.00 0.55 0.27 86 1012.5
20260905200511 85 247 1.0 4.0 0.00 0.60 0.27 85 1012.4
20260905200033 85 259 0.0 7.0 0.02 0.65 0.27 86 1012.5
20260905195514 85 219 1.0 8.0 0.15 0.71 0.27 84 1012.6
20260905195013 85 161 4.0 8.0 0.26 0.78 0.27 85 1012.7